Regional Weather Roundup
Issued by NWS

Home | Current Version | Previous Version | Graphics & Text | Print | Product List | Glossary On
Versions: 1 2 3 4 5 6 7 8 9 10 11 12 13 14 15 16 17 18 19 20 21 22 23 24 25 26 27 28 29 30 31 32 33 34 35 36 37 38 39 40 41 42 43 44 45 46 47 48 49 50
623
ASUS43 KFSD 291810
RWRSD

WEATHER ROUNDUP FOR SOUTH DAKOTA
NATIONAL WEATHER SERVICE SIOUX FALLS SD
100 PM CDT FRI JUL 29 2016

NOTE: "FAIR" INDICATES FEW OR NO CLOUDS BELOW 12,000 FEET WITH NO
SIGNIFICANT WEATHER AND/OR OBSTRUCTIONS TO VISIBILITY.


SDZ001>005-009-010-012>017-291900-
NORTHWEST AND NORTH CENTRAL SOUTH DAKOTA

CITY           SKY/WX    TMP DP  RH WIND       PRES   REMARKS
BUFFALO          N/A     75  59  57 VRB5      30.03F
FAITH            N/A     76  57  51 S10       30.09S
MOBRIDGE       MOSUNNY   79  59  50 SE9       30.05F
$$

SDZ012>016-024>037-041>051-057-063-072>074-291900-
SOUTHWEST AND SOUTH CENTRAL SOUTH DAKOTA

CITY           SKY/WX    TMP DP  RH WIND       PRES   REMARKS
RAPID CTY ARPT MOSUNNY   77  56  48 MISG      30.10F
PIERRE         MOSUNNY   77  60  55 S12       30.07F
CUSTER         PTSUNNY   73  51  46 SW9       30.19F
ELLSWORTH AFB  MOSUNNY   78  57  49 VRB3      30.09
PHILIP         MOSUNNY   76  59  55 VRB7G16   30.08F
PINE RIDGE     PTSUNNY   81  59  47 VRB5      30.10F
WINNER         FAIR      77  61  57 E8        30.10F
$$

SDZ004>011-016>023-039-040-291900-
NORTHEAST SOUTH DAKOTA

CITY           SKY/WX    TMP DP  RH WIND       PRES   REMARKS
ABERDEEN       NOT AVBL
WATERTOWN      MOSUNNY   77  55  46 MISG      30.11F
BROOKINGS      SUNNY     74  54  49 E8        30.11F
SISSETON         N/A     75  60  59 SW7       30.08F
$$

SDZ017-020-022-023-036>040-048>070-291900-
SOUTHEAST SOUTH DAKOTA

CITY           SKY/WX    TMP DP  RH WIND       PRES   REMARKS
SIOUX FALLS    MOSUNNY   77  58  51 NE6       30.09F
HURON          SUNNY     78  54  43 SE8       30.08F
CHAMBERLAIN    MOSUNNY   82  57  42 SE7       30.09F
MITCHELL       SUNNY     79  54  41 MISG      30.09F
YANKTON        SUNNY     75  54  46 NE7       30.08F
$$

ABBREVIATIONS USED IN REMARKS
   TC - TEMPERATURE IN CELSIUS
  WCI - WIND CHILL INDEX
   HX - HEAT INDEX
  VSB - VISIBILITY





USA.gov is the U.S. government's official web portal to all federal, state and local government web resources and services.